Powrót do katalogu

ONEWEB-0281

AktywnyŁącznośćPO
NORAD 48999·PAYLOAD·🇬🇧 United Kingdom

Wystrzelony Jul 1, 2021 z Vostochny Cosmodrome

Loading…

Następne Przeloty (najbliższe 24 godziny)

TLE

ŚwieżeSource: CelesTrak SupGP

Epoka: Sep 14, 2026, 21:38 UTC

1 48999C 21060AJ  26257.90189074 -.00002097  00000+0 -54921-2 0  2577
2 48999  87.9149 210.9600 0002163  83.4580 310.4998 13.16594430    18

Śledź ONEWEB-0281 w czasie rzeczywistym z AllMySat

Download on the App Store